Temperature
15 15 16 16 13 11 12 13 13 13 13 13 14 14 13 12 13 14 14 14 14 14 14 13 13 13 13 13 13 13 13 13 13 13 13 13 13 13 13 14 14 14 14 14 14 14 14 14 14
15 15 15 15 12 12 12 12 12 13 13 14 14 13 12 12 13 13 13 14 14 14 13 13 13 13 13 13 13 13 13 13 13 13 13 13 13 13 13 13 13 13 14 14 14 14 14 14 14
15 15 15 11 11 12 13 13 12 12 13 13 12 12 12 12 12 12 13 13 13 13 13 13 13 13 13 13 13 13 12 13 13 13 13 13 13 13 13 13 13 13 13 13 14 14 14 14 14
15 15 14 11 12 11 12 12 12 12 13 13 12 11 11 11 12 12 12 13 12 13 13 13 13 12 12 12 12 12 12 12 12 13 13 12 12 12 12 13 13 13 13 13 13 13 13 13 13
14 14 11 11 11 11 11 12 12 12 11 11 12 10 10 11 11 12 12 12 12 12 12 12 12 12 12 12 12 12 12 12 12 12 12 12 12 12 12 12 12 12 12 12 13 13 13 13 13
14 11 10 11 11 11 11 12 12 11 11 11 11 10 10 11 11 11 11 12 12 12 12 12 12 12 12 12 12 12 12 12 12 12 12 12 12 12 12 12 12 12 12 12 12 12 13 13 13
13 10 10 11 11 11 11 12 11 10 10 10 11 10 10 10 11 11 11 11 11 11 11 11 11 11 11 11 11 11 11 11 11 11 11 11 11 11 11 11 11 11 12 12 12 12 12 12 12
13 9 10 10 11 11 11 11 11 11 10 10 10 9 9 10 10 10 10 11 11 11 11 11 11 11 11 11 11 11 11 11 11 11 11 11 11 11 11 11 11 11 11 11 12 12 12 12 12
12 9 10 10 10 11 10 10 10 10 10 9 9 9 9 9 10 10 10 10 10 10 10 10 11 11 11 11 10 10 10 10 10 11 10 10 10 10 10 11 10 11 11 11 11 11 11 12 12
11 9 10 10 10 10 10 9 9 9 8 8 8 8 9 9 10 10 10 10 10 10 10 10 10 10 10 10 10 10 10 10 10 10 10 10 10 10 10 10 10 10 10 10 11 11 11 11 11
9 8 9 9 10 10 9 8 8 8 7 7 7 8 8 9 9 9 9 9 9 9 9 9 9 10 10 10 10 10 10 10 10 10 10 10 10 10 10 10 10 10 10 10 10 10 10 11 11
8 8 9 9 9 9 8 8 7 7 7 8 8 8 8 8 8 8 8 8 8 8 9 9 9 9 9 9 9 9 9 9 9 9 9 9 9 9 9 9 9 9 9 9 10 10 10 10 10
7 7 7 8 8 7 7 7 6 6 7 7 7 7 7 7 7 7 7 7 8 8 8 8 8 8 8 9 9 9 9 9 9 9 9 9 9 9 9 9 9 9 9 9 9 9 9 9 9
7 7 7 7 7 7 6 6 5 5 6 6 6 6 6 6 6 6 6 7 7 7 7 7 7 7 7 8 8 8 8 8 8 8 8 8 8 8 8 8 8 8 8 8 8 8 8 9 9
7 6 6 6 6 6 6 5 4 5 6 5 5 6 6 5 6 6 6 6 6 7 7 7 7 7 7 7 7 7 8 8 8 8 8 8 8 8 8 8 8 8 8 8 8 8 8 8 8
7 6 6 6 6 6 7 6 5 5 5 4 4 4 4 4 5 5 5 5 6 6 6 6 6 6 6 6 7 7 7 7 7 7 7 7 7 7 7 7 7 7 7 7 7 7 7 7 7
6 6 6 6 5 5 5 5 4 4 4 3 3 3 3 4 4 4 4 5 5 5 5 5 5 6 6 6 6 6 6 6 6 6 6 6 7 6 7 7 7 7 7 7 7 6 6 6 6
6 5 5 5 5 5 4 4 3 3 3 2 2 2 2 3 3 3 4 4 4 4 5 5 5 5 5 5 5 6 6 6 6 6 6 6 6 6 6 6 6 6 6 6 6 6 6 6 6
5 5 5 5 5 4 4 3 3 2 2 1 1 1 1 2 2 3 3 3 4 4 4 4 5 5 5 5 5 5 5 5 5 5 5 5 5 5 5 5 5 5 5 5 5 5 5 5 5
5 5 4 4 4 4 3 3 2 1 1 1 1 0 1 1 2 2 2 3 3 3 4 4 4 4 4 4 4 4 5 5 5 4 4 4 4 4 5 5 5 5 5 5 5 5 5 5 5
5 4 4 4 4 3 3 3 2 1 1 1 0 0 0 1 1 2 2 2 3 3 3 3 3 3 3 3 3 3 4 4 4 4 4 4 4 4 4 4 4 4 4 4 4 4 4 4 4
5 5 4 4 3 3 3 3 3 1 -0 -0 -0 -0 -0 0 1 1 1 2 2 2 2 2 3 3 3 2 3 3 3 3 3 3 3 3 3 3 3 3 3 4 3 4 4 4 4 4 4
4 4 3 3 3 2 1 2 2 0 0 -0 -1 -1 -0 0 0 1 1 1 1 1 2 2 2 2 2 2 2 2 2 2 2 2 2 2 2 3 3 3 3 3 3 3 3 3 3 3 3
3 3 2 2 2 3 2 2 3 1 1 0 -1 -1 -0 0 0 0 1 0 1 1 1 1 1 1 1 1 1 1 2 2 2 2 2 2 2 2 2 2 2 2 2 2 3 3 3 3 3
3 3 3 3 2 3 2 2 2 1 -1 -1 -1 -1 -0 -0 -0 -0 -0 -0 0 0 0 0 0 1 1 1 1 1 1 1 1 1 1 1 1 1 1 1 1 1 2 2 2 2 2 2 2
2 3 3 3 3 2 1 1 1 -1 -1 -1 -1 -1 -1 -1 -0 -1 -1 -1 -0 -0 -0 -0 -0 0 0 0 0 0 0 -0 0 0 0 0 0 0 1 1 1 1 1 1 1 1 1 1 1
2 1 2 1 0 0 1 -0 -1 -2 -2 -2 -2 -2 -2 -1 -1 -1 -1 -1 -1 -1 -1 -1 -1 -1 -1 -1 -1 -1 -1 -1 -1 -1 -1 -1 -0 -0 -0 -0 -0 -0 -0 0 0 0 1 1 1
2 1 0 1 2 2 1 0 1 -1 -2 -3 -3 -3 -2 -2 -2 -2 -2 -2 -2 -2 -2 -2 -2 -2 -2 -2 -1 -1 -1 -2 -1 -1 -1 -1 -1 -1 -1 -1 -1 -1 -1 -1 -1 -0 -0 -0 0
0 0 0 -0 0 1 1 1 -1 -1 -2 -3 -3 -3 -2 -2 -2 -2 -2 -3 -3 -3 -3 -3 -2 -3 -2 -2 -2 -2 -2 -2 -2 -2 -2 -2 -2 -2 -2 -1 -2 -2 -1 -1 -1 -1 -1 -1 -1
-0 -0 -1 0 -0 -1 -1 0 -2 -3 -3 -3 -3 -3 -3 -3 -3 -3 -3 -3 -3 -3 -3 -3 -3 -3 -3 -3 -3 -3 -3 -3 -3 -3 -3 -3 -3 -3 -3 -2 -2 -2 -2 -2 -2 -2 -2 -1 -1
Wind_Speed
6 4 3 4 4 3 3 3 2 2 2 1 2 4 5 4 3 3 1 2 3 2 1 3 6 7 8 8 9 9 9 10 10 10 11 11 12 12 12 12 12 13 13 14 14 15 16 16 17
2 2 4 4 4 2 4 3 3 3 3 3 3 3 3 1 1 2 2 4 3 2 3 3 6 7 8 9 9 9 9 9 9 10 10 11 11 11 12 12 12 13 14 14 15 15 16 16 17
1 3 4 4 3 6 4 3 4 1 1 2 2 3 2 1 1 1 3 3 3 4 4 4 6 7 8 8 9 9 9 9 9 9 9 10 10 11 11 12 12 13 14 15 15 16 16 16 16
3 4 4 3 5 5 3 1 2 1 2 3 3 2 1 3 2 2 3 3 4 5 4 4 6 7 8 8 8 8 8 8 9 9 9 9 9 10 10 11 12 13 14 15 15 16 16 16 16
3 4 3 1 6 3 2 1 2 2 1 2 3 2 1 3 4 4 4 5 5 5 6 5 6 7 7 7 8 8 7 8 8 9 9 9 9 9 10 10 11 13 14 15 15 15 15 15 16
3 3 3 6 6 3 1 1 1 1 1 1 3 3 1 3 5 4 4 5 6 6 7 7 7 6 6 7 7 7 7 7 8 8 8 9 9 10 9 10 11 12 13 14 14 15 15 15 15
4 3 5 6 5 3 2 1 3 2 1 1 2 4 1 2 3 3 4 6 7 7 7 7 7 6 7 6 6 7 7 7 7 8 8 9 9 9 9 10 10 11 13 14 14 14 14 14 15
4 3 3 4 5 3 1 2 1 2 2 1 2 4 2 1 2 3 5 6 6 6 7 6 7 7 6 6 6 7 8 8 8 8 9 9 9 9 9 9 10 11 12 13 14 14 14 15 15
3 2 6 6 6 3 1 2 1 2 4 3 2 1 1 3 4 5 5 5 5 5 5 6 6 7 6 6 6 7 7 8 9 8 8 8 8 8 8 9 10 11 12 13 13 14 14 14 14
3 5 8 4 3 3 1 2 2 3 2 1 1 3 3 5 5 5 4 3 3 3 4 5 5 5 6 6 6 6 6 6 7 8 8 8 8 8 8 9 10 10 11 12 13 13 13 12 11
3 5 3 2 1 2 2 1 1 4 2 3 3 2 4 5 4 4 3 2 1 1 3 5 5 5 5 5 5 5 5 6 6 7 7 8 8 7 7 7 8 9 10 10 10 10 10 11 10
2 2 2 1 1 1 2 3 2 2 4 1 2 4 5 5 4 3 2 1 1 2 2 3 5 5 5 5 5 5 4 4 4 5 6 6 5 5 5 5 6 6 6 7 8 8 9 10 11
3 2 1 0 2 1 2 2 2 3 2 2 4 6 6 5 4 2 2 1 1 1 1 2 3 4 4 4 4 4 4 4 4 4 5 5 4 4 4 4 5 5 6 6 6 7 7 8 9
2 2 1 1 1 1 3 2 2 5 3 3 5 5 4 4 3 2 1 1 1 1 1 2 3 3 4 4 3 3 4 4 4 4 4 5 4 4 3 4 4 4 5 5 6 6 6 6 7
1 1 1 2 2 2 2 3 6 5 4 4 3 3 3 3 3 2 1 1 0 1 2 2 2 4 4 4 3 3 4 4 4 3 3 4 4 4 4 3 3 4 5 6 6 6 6 6 6
2 1 2 3 2 3 4 8 6 5 6 5 3 3 3 2 2 1 1 1 1 1 2 2 3 3 3 3 3 3 3 4 3 3 3 4 4 4 4 3 3 4 5 5 5 4 4 3 4
1 2 4 3 2 2 5 7 4 2 5 5 4 3 2 1 0 0 1 1 1 1 2 2 3 3 3 3 3 3 3 4 3 3 3 3 4 4 4 3 3 4 4 4 4 3 3 3 3
4 4 4 5 2 3 5 8 5 3 4 5 3 3 2 2 2 1 0 1 1 1 2 2 3 3 3 3 3 2 3 3 3 3 3 2 2 3 4 3 3 4 3 2 3 3 3 3 3
4 4 6 5 2 4 8 10 8 5 4 4 4 3 4 4 2 1 1 1 1 2 2 2 3 3 3 2 1 1 1 1 2 3 3 2 2 3 3 3 3 3 3 2 3 3 4 2 2
4 4 5 4 2 4 6 10 7 6 5 6 6 5 4 3 1 1 0 1 0 1 1 1 2 2 2 1 1 0 0 0 1 2 3 2 1 2 2 3 3 2 2 3 3 3 2 1 1
6 7 6 5 4 2 3 8 6 4 4 4 4 4 4 4 4 2 1 1 1 0 0 1 1 1 2 1 2 2 2 1 1 2 2 3 2 1 1 2 3 2 3 4 4 4 3 2 1
7 5 5 4 2 4 1 6 7 5 5 6 6 5 5 4 3 3 2 2 2 1 0 0 1 1 1 2 2 2 1 1 1 1 1 3 2 2 1 1 2 3 2 3 4 3 3 4 3
5 2 3 4 4 4 3 5 7 3 6 8 7 7 5 5 4 3 3 3 1 1 0 0 1 1 1 2 2 2 1 0 0 0 1 1 2 2 1 0 1 2 2 2 3 3 3 3 3
2 1 1 1 1 6 6 7 7 5 7 5 6 6 5 4 3 2 1 1 0 0 0 0 0 0 1 1 1 2 2 1 1 0 1 1 1 1 2 1 1 2 2 2 3 3 4 3 3
2 2 2 3 2 7 4 6 8 5 4 5 5 6 5 4 3 2 1 1 1 1 1 0 1 0 0 1 1 1 2 2 2 2 2 1 2 2 2 2 1 1 2 2 2 3 3 3 4
4 5 5 5 5 5 2 8 6 2 1 1 3 3 2 3 3 2 2 2 2 2 1 1 1 1 1 1 1 1 1 1 1 1 2 2 2 2 2 2 2 2 2 2 2 2 3 2 3
4 5 4 3 1 4 6 6 6 1 1 0 1 2 2 3 3 2 2 1 2 2 2 1 1 1 1 1 1 1 1 1 1 2 2 2 2 2 2 2 2 2 2 2 2 3 3 3 3
3 5 4 4 4 6 6 5 5 5 5 3 3 4 3 2 1 1 1 1 1 1 1 1 1 1 1 1 1 1 1 1 2 2 2 2 2 3 2 3 3 3 3 2 3 3 3 4 4
4 4 4 3 4 4 5 7 3 5 6 7 6 5 4 3 2 2 1 1 0 1 1 1 1 1 1 1 1 1 1 1 1 2 2 2 3 3 3 3 3 3 3 3 3 4 4 4 4
5 6 7 5 5 5 5 8 2 3 4 4 4 3 2 2 2 1 1 0 0 1 1 1 2 1 1 1 1 1 1 1 1 2 3 3 3 3 3 3 3 4 4 4 4 5 5 5 5
Wind_Direction
344 15 60 60 63 60 226 238 206 189 181 150 101 118 134 137 142 162 334 28 18 39 96 120 110 104 101 101 104 103 101 98 96 96 95 92 89 87 85 81 78 75 78 80 84 82 81 80 79
346 29 58 67 110 184 250 229 199 209 173 124 70 81 98 103 29 57 4 341 17 65 95 102 107 105 100 97 99 105 102 99 98 99 99 96 92 88 85 83 81 78 79 81 81 81 80 79 79
44 52 88 90 149 193 214 210 196 211 76 104 83 50 87 53 24 24 335 338 43 63 86 106 107 106 105 102 97 104 103 100 99 101 101 99 96 91 87 85 85 84 84 82 82 82 81 80 79
77 55 64 101 212 223 212 223 163 141 49 57 112 75 50 31 357 350 8 39 62 49 64 99 107 105 107 106 102 99 107 104 98 96 97 99 99 96 90 87 86 88 87 86 85 84 81 81 80
64 89 95 204 236 241 233 253 138 133 103 60 116 119 41 18 23 41 48 55 66 44 40 61 94 103 105 104 103 102 101 109 104 100 96 93 93 97 94 89 87 88 89 89 89 86 83 81 80
68 85 144 215 234 242 236 248 136 116 112 72 114 128 136 30 33 34 49 53 55 52 42 50 64 82 100 99 98 99 101 107 107 103 101 97 93 89 91 92 91 90 90 91 91 90 87 84 81
127 129 186 201 217 237 224 158 150 165 172 228 149 135 159 20 22 42 53 53 52 51 46 42 52 64 71 80 88 93 97 101 105 105 100 96 94 90 90 91 93 93 92 91 91 91 88 84 81
130 125 183 204 203 224 176 124 115 149 166 63 87 143 199 284 53 68 64 54 51 46 40 34 44 53 60 65 73 80 82 87 87 90 89 87 87 89 90 91 94 93 93 91 90 89 85 80 77
98 135 210 210 193 200 126 119 48 68 102 73 62 85 50 101 104 87 67 47 42 34 30 30 37 45 55 65 68 70 77 81 79 75 73 81 83 81 85 89 92 92 93 91 90 89 85 80 74
109 196 218 217 183 164 128 137 148 105 86 88 72 50 83 106 112 107 96 81 49 23 13 23 31 39 53 65 65 65 68 73 75 74 69 75 79 79 84 88 89 92 92 89 87 84 82 77 70
142 197 213 224 153 146 150 145 135 147 191 209 194 160 129 120 115 118 124 120 106 45 28 18 21 35 49 56 61 58 62 67 73 77 75 79 79 80 79 81 80 82 85 83 81 76 74 75 73
163 242 215 226 96 123 161 149 147 194 211 172 154 142 139 141 143 152 157 140 61 51 31 28 25 27 38 56 57 59 59 62 66 79 85 85 78 72 74 77 76 77 82 84 81 77 76 76 74
208 236 294 47 70 125 127 161 177 226 205 118 116 122 141 153 158 152 126 94 49 40 29 39 43 38 32 52 60 58 53 56 61 78 83 89 83 78 76 75 80 78 81 85 84 82 78 78 74
189 187 233 282 264 242 184 217 189 227 166 135 129 140 152 158 155 123 89 65 30 15 23 45 63 50 47 41 54 60 58 63 60 66 81 94 98 91 87 83 74 77 85 90 92 90 82 78 80
139 99 314 250 211 212 166 268 226 208 153 151 157 160 152 143 129 139 155 150 45 30 46 56 69 53 56 47 45 60 61 69 61 56 84 97 98 99 96 97 89 81 89 93 93 88 83 79 79
94 116 260 263 200 212 195 251 235 181 163 181 181 166 160 151 144 142 112 90 63 58 57 55 49 58 54 53 43 57 68 68 63 65 79 93 100 108 101 98 96 100 99 97 98 101 98 82 79
61 227 241 269 209 185 203 244 238 178 177 191 187 178 177 174 109 52 63 91 84 80 80 78 65 68 51 49 45 56 76 71 59 62 70 88 101 113 112 100 107 110 101 95 101 101 118 109 91
218 222 234 242 241 198 230 243 248 220 192 198 196 190 189 202 235 229 103 102 113 97 89 86 77 62 54 56 43 47 68 63 57 55 56 77 97 108 114 107 112 119 111 101 105 106 97 122 118
179 201 240 252 247 223 242 253 248 224 203 210 217 212 215 224 230 185 127 80 107 102 94 97 87 73 73 75 59 56 77 51 51 41 45 59 93 111 111 112 111 123 135 142 132 131 112 109 125
207 234 254 277 274 236 260 265 246 220 206 206 210 218 224 231 239 205 124 88 72 160 137 126 112 96 90 95 137 235 196 138 61 29 31 31 70 117 116 123 134 138 144 148 146 146 133 141 152
228 223 235 254 312 284 298 282 235 215 199 204 211 214 217 216 222 230 230 236 241 276 247 174 147 121 99 87 90 60 59 63 42 20 8 1 2 43 137 138 141 151 165 177 178 174 163 175 215
245 232 226 233 260 275 204 280 259 210 221 223 222 220 224 227 223 219 220 233 242 255 282 215 150 122 108 113 121 130 147 161 261 282 314 342 4 21 48 128 146 166 175 188 190 190 194 172 188
230 251 223 223 214 268 222 233 275 191 230 231 222 219 224 223 215 216 215 221 237 242 209 240 158 133 125 138 149 149 160 179 232 24 351 346 353 1 3 138 148 164 190 204 199 200 200 192 192
189 58 74 101 161 253 222 208 268 223 225 227 213 209 215 217 216 219 215 175 135 145 141 199 150 121 147 147 156 154 168 155 130 50 310 313 320 339 348 304 212 191 197 211 211 204 207 208 204
102 103 334 306 259 247 198 215 250 243 224 215 206 207 208 204 204 208 198 204 203 217 229 209 182 278 296 195 186 177 179 181 183 204 228 266 291 300 298 320 282 249 223 217 213 205 217 218 210
200 175 189 229 245 272 237 234 251 243 232 211 195 189 190 198 207 211 216 219 227 233 238 233 222 233 274 257 244 209 184 195 214 224 235 242 254 267 280 285 288 278 262 230 222 226 223 219 228
173 200 195 171 266 268 257 271 291 229 272 205 181 185 216 217 217 220 228 231 239 240 243 230 228 228 253 260 280 255 210 215 232 242 248 249 270 282 287 291 292 288 267 245 236 237 227 221 228
183 158 135 175 230 261 275 258 249 247 233 217 215 223 234 227 227 229 237 263 283 293 301 293 230 242 256 253 242 263 251 242 242 241 257 265 279 282 275 278 280 284 270 252 239 255 239 228 232
164 174 175 183 194 209 267 267 241 227 212 204 215 221 224 217 225 233 246 263 278 345 337 332 311 297 294 274 269 271 278 269 258 257 262 271 281 278 267 265 266 271 266 252 233 247 243 235 240
189 194 175 193 227 211 238 267 294 241 233 208 218 227 225 217 213 217 219 237 328 322 326 317 315 304 302 296 294 285 288 285 271 277 278 280 280 278 273 269 262 259 260 251 239 243 246 236 239
Height
1494 1495 1497 1499 1503 1513 1514 1511 1508 1507 1507 1507 1507 1509 1511 1514 1517 1522 1519 1517 1518 1520 1521 1522 1524 1525 1526 1527 1528 1529 1530 1531 1531 1532 1532 1533 1533 1534 1534 1534 1534 1534 1534 1534 1534 1535 1536 1536 1536
1494 1496 1498 1499 1508 1517 1514 1508 1507 1506 1505 1506 1507 1509 1510 1512 1514 1516 1516 1517 1518 1520 1521 1522 1524 1525 1526 1527 1528 1529 1530 1531 1531 1532 1533 1533 1534 1534 1535 1535 1535 1535 1535 1536 1536 1536 1537 1537 1537
1494 1496 1498 1501 1510 1512 1508 1505 1505 1504 1505 1506 1508 1509 1511 1513 1514 1515 1516 1517 1518 1520 1521 1522 1524 1525 1526 1527 1528 1529 1530 1531 1532 1532 1533 1533 1534 1534 1535 1535 1535 1536 1536 1537 1537 1538 1538 1539 1539
1494 1496 1498 1505 1507 1506 1504 1503 1503 1504 1505 1507 1508 1511 1512 1514 1514 1515 1516 1516 1518 1519 1521 1522 1524 1525 1526 1527 1528 1529 1530 1531 1532 1532 1533 1533 1534 1534 1535 1536 1536 1536 1536 1537 1538 1539 1539 1540 1540
1494 1495 1502 1508 1505 1504 1503 1503 1503 1504 1506 1507 1508 1511 1512 1514 1514 1514 1515 1516 1518 1519 1521 1522 1524 1525 1526 1527 1528 1529 1530 1531 1531 1532 1532 1533 1534 1534 1535 1535 1536 1536 1537 1537 1538 1539 1540 1540 1541
1494 1495 1506 1507 1503 1502 1502 1502 1503 1504 1506 1507 1509 1511 1512 1514 1513 1514 1515 1516 1518 1519 1520 1522 1523 1524 1525 1526 1528 1528 1529 1530 1531 1531 1532 1533 1533 1534 1535 1536 1536 1536 1537 1538 1539 1539 1540 1541 1541
1493 1498 1503 1503 1503 1502 1502 1501 1503 1504 1506 1507 1508 1510 1512 1512 1513 1514 1515 1517 1518 1519 1520 1521 1523 1524 1525 1526 1527 1528 1528 1529 1530 1531 1532 1532 1533 1534 1535 1536 1536 1536 1537 1538 1539 1540 1540 1541 1542
1491 1497 1501 1502 1501 1501 1501 1501 1502 1504 1505 1507 1508 1509 1511 1512 1512 1514 1515 1517 1518 1519 1520 1521 1522 1523 1524 1525 1526 1527 1527 1528 1529 1530 1531 1532 1533 1534 1534 1535 1536 1537 1537 1538 1539 1540 1540 1541 1542
1491 1499 1500 1499 1499 1500 1500 1501 1502 1504 1505 1506 1507 1509 1510 1511 1511 1513 1514 1516 1517 1518 1519 1520 1521 1522 1523 1524 1525 1526 1527 1527 1528 1529 1530 1531 1532 1533 1534 1535 1535 1536 1537 1538 1538 1539 1540 1541 1542
1491 1497 1495 1495 1496 1498 1499 1500 1502 1503 1505 1506 1507 1507 1508 1509 1510 1511 1512 1513 1514 1515 1517 1518 1519 1520 1521 1523 1524 1525 1525 1526 1527 1528 1529 1530 1531 1532 1533 1534 1535 1536 1536 1537 1538 1539 1540 1541 1542
1490 1494 1493 1494 1495 1497 1498 1500 1502 1502 1505 1505 1505 1505 1507 1508 1508 1509 1510 1511 1512 1514 1515 1516 1517 1519 1520 1521 1522 1523 1524 1525 1526 1527 1528 1529 1530 1531 1532 1533 1534 1534 1535 1536 1537 1539 1540 1540 1542
1491 1493 1493 1494 1495 1496 1498 1499 1501 1501 1503 1504 1504 1505 1505 1506 1506 1507 1508 1509 1511 1512 1513 1514 1515 1516 1518 1519 1520 1521 1522 1523 1524 1525 1526 1527 1528 1529 1530 1531 1532 1533 1534 1535 1537 1538 1539 1540 1541
1491 1493 1493 1494 1494 1496 1497 1498 1499 1500 1501 1502 1503 1503 1503 1504 1505 1506 1506 1508 1509 1510 1511 1512 1513 1514 1516 1517 1518 1519 1520 1521 1522 1523 1525 1525 1526 1527 1529 1530 1531 1532 1533 1534 1535 1537 1538 1539 1540
1490 1492 1493 1494 1494 1495 1496 1498 1499 1498 1500 1500 1500 1501 1501 1502 1502 1503 1504 1505 1506 1507 1508 1510 1511 1512 1513 1515 1516 1517 1518 1519 1520 1521 1522 1524 1524 1525 1526 1528 1529 1530 1531 1533 1534 1535 1537 1538 1539
1491 1493 1493 1493 1494 1495 1496 1498 1497 1495 1497 1498 1498 1499 1499 1500 1500 1501 1502 1503 1504 1505 1506 1507 1508 1510 1511 1513 1514 1515 1516 1517 1518 1519 1520 1521 1522 1523 1524 1526 1527 1528 1529 1531 1532 1534 1535 1536 1537
1491 1494 1495 1493 1493 1494 1497 1494 1493 1494 1495 1496 1496 1496 1497 1497 1498 1499 1500 1501 1502 1503 1504 1505 1506 1507 1509 1510 1512 1513 1514 1515 1516 1517 1518 1519 1520 1521 1522 1523 1525 1526 1527 1529 1530 1531 1533 1534 1535
1493 1496 1495 1494 1492 1493 1494 1493 1492 1492 1493 1493 1494 1494 1495 1495 1496 1497 1498 1499 1500 1501 1502 1503 1504 1504 1506 1508 1509 1511 1512 1513 1514 1515 1516 1517 1518 1519 1520 1521 1522 1524 1525 1526 1527 1529 1530 1532 1533
1494 1495 1494 1494 1492 1493 1493 1492 1491 1490 1491 1491 1492 1492 1493 1493 1494 1495 1496 1497 1498 1499 1500 1501 1502 1502 1503 1505 1506 1508 1509 1510 1511 1512 1513 1514 1515 1516 1517 1518 1520 1521 1523 1524 1525 1526 1528 1529 1530
1491 1493 1493 1492 1491 1492 1490 1489 1488 1488 1489 1489 1490 1490 1491 1491 1493 1493 1494 1495 1496 1496 1497 1498 1498 1499 1500 1501 1503 1504 1505 1507 1508 1509 1510 1511 1512 1514 1515 1516 1517 1518 1520 1521 1522 1524 1525 1526 1528
1490 1492 1493 1492 1490 1491 1490 1487 1485 1485 1485 1486 1487 1487 1488 1489 1490 1490 1491 1492 1493 1494 1494 1495 1496 1497 1497 1498 1500 1501 1502 1503 1505 1506 1508 1509 1510 1511 1512 1513 1514 1515 1517 1518 1519 1521 1521 1523 1525
1488 1491 1491 1492 1491 1491 1492 1484 1482 1482 1483 1483 1484 1485 1485 1486 1486 1487 1488 1489 1490 1490 1491 1492 1493 1494 1495 1496 1497 1498 1499 1500 1502 1503 1504 1505 1506 1507 1508 1509 1511 1512 1513 1514 1515 1517 1518 1519 1522
1487 1486 1488 1490 1494 1493 1493 1489 1476 1479 1481 1480 1481 1482 1482 1483 1483 1484 1485 1486 1486 1487 1488 1489 1490 1491 1492 1493 1494 1495 1495 1495 1497 1499 1500 1502 1503 1503 1505 1506 1507 1508 1509 1511 1512 1513 1515 1516 1518
1485 1486 1488 1489 1492 1496 1495 1494 1477 1478 1478 1476 1477 1478 1479 1480 1480 1481 1481 1483 1483 1484 1485 1486 1487 1488 1489 1490 1491 1491 1492 1493 1494 1496 1497 1498 1499 1500 1501 1502 1503 1504 1505 1507 1508 1509 1511 1512 1514
1485 1488 1490 1493 1494 1492 1488 1491 1476 1475 1472 1471 1472 1474 1475 1476 1477 1478 1479 1480 1481 1482 1482 1483 1484 1485 1486 1487 1488 1488 1489 1490 1490 1491 1492 1494 1495 1496 1497 1498 1499 1500 1501 1502 1504 1505 1507 1508 1510
1486 1490 1492 1491 1493 1485 1484 1484 1473 1468 1468 1468 1469 1471 1472 1473 1475 1475 1475 1476 1477 1478 1479 1480 1481 1481 1482 1483 1484 1484 1485 1486 1486 1487 1488 1489 1490 1491 1492 1494 1495 1496 1497 1498 1500 1501 1502 1504 1505
1485 1487 1491 1490 1490 1486 1485 1481 1470 1467 1466 1466 1468 1469 1470 1471 1472 1473 1473 1474 1474 1475 1476 1477 1477 1478 1478 1479 1480 1481 1481 1482 1483 1484 1485 1485 1486 1487 1488 1489 1490 1491 1492 1494 1495 1496 1498 1499 1501
1485 1488 1488 1494 1496 1495 1482 1479 1471 1466 1466 1466 1467 1468 1469 1470 1471 1471 1471 1471 1472 1472 1473 1473 1474 1474 1475 1476 1476 1477 1478 1479 1479 1480 1481 1482 1482 1483 1484 1485 1486 1487 1488 1489 1490 1491 1493 1494 1496
1482 1485 1492 1492 1490 1487 1480 1478 1468 1465 1465 1466 1467 1467 1467 1468 1468 1469 1469 1470 1470 1470 1471 1471 1471 1471 1472 1472 1472 1473 1474 1475 1476 1476 1477 1477 1478 1479 1479 1480 1481 1482 1483 1484 1485 1487 1488 1489 1490
1484 1486 1487 1490 1490 1490 1485 1471 1464 1463 1461 1463 1463 1464 1465 1466 1466 1467 1467 1467 1467 1468 1468 1468 1468 1468 1469 1469 1469 1470 1471 1471 1472 1472 1473 1473 1474 1474 1475 1475 1476 1477 1478 1479 1480 1481 1482 1483 1485
1480 1481 1485 1486 1487 1491 1487 1473 1462 1461 1460 1461 1462 1463 1464 1465 1465 1465 1465 1465 1464 1464 1464 1465 1465 1465 1466 1466 1466 1466 1467 1467 1468 1468 1468 1469 1469 1470 1470 1471 1472 1472 1473 1474 1475 1476 1476 1478 1478